Address 0xcc376952b162800ef3570dbb8f2dd8aba138b296 1

 
 
Txn Hash Method
Block
From
To
Value [Txn Fee]
0xd89e99e0daf1d8090ad818ffe7bb567bc1ef43e17b6a5ac06dadf7e34d69d307Execute Auction146037972022-01-23 2:09:561 hr 32 mins ago0xcc376952b162800ef3570dbb8f2dd8aba138b296OUT 0xe97fdca0a3fc76b3046ae496c1502c9d8dfef6fc0 BNB0.000159265
0x49b7c92074a19e47d8282825aaee1a7392014f32ea0514e7ed507d44d823b4d2Execute Auction146037922022-01-23 2:09:411 hr 32 mins ago0xcc376952b162800ef3570dbb8f2dd8aba138b296OUT 0xe97fdca0a3fc76b3046ae496c1502c9d8dfef6fc0 BNB0.000889945
0x5815e7cf551a884a46b87f4e84aea0af0465be4f460cce5235821dafc4f3fb21Execute Auction146037862022-01-23 2:09:231 hr 32 mins ago0xcc376952b162800ef3570dbb8f2dd8aba138b296OUT 0xe97fdca0a3fc76b3046ae496c1502c9d8dfef6fc0 BNB0.000889945
0xf744ac5049b81cc8e8dce04375c79b3660b989c79c85a47f4bd731d081bcca04Execute Auction146037272022-01-23 2:06:261 hr 35 mins ago0xcc376952b162800ef3570dbb8f2dd8aba138b296OUT 0xe97fdca0a3fc76b3046ae496c1502c9d8dfef6fc0 BNB0.000889945
0xae7221ad3d21bc59460d6c328e5e5cf2353bdb370d4649ec58399930c18fbc85Execute Auction146037162022-01-23 2:05:531 hr 36 mins ago0xcc376952b162800ef3570dbb8f2dd8aba138b296OUT 0xe97fdca0a3fc76b3046ae496c1502c9d8dfef6fc0 BNB0.000889945
0x7980123f355d144fa91482f590a4cefb2eef5c4c165e9829953afada953014ffExecute Auction146037082022-01-23 2:05:291 hr 36 mins ago0xcc376952b162800ef3570dbb8f2dd8aba138b296OUT 0xe97fdca0a3fc76b3046ae496c1502c9d8dfef6fc0 BNB0.000889885
0xb38b3b39abcd74199bdba3bb4b386139f2cea4ddaaa374958a4b9c1dc2f0d86eExecute Auction146036992022-01-23 2:05:021 hr 36 mins ago0xcc376952b162800ef3570dbb8f2dd8aba138b296OUT 0xe97fdca0a3fc76b3046ae496c1502c9d8dfef6fc0 BNB0.000889945
0x60822aacd0a63d9784f341aa9484d09a5a1adbef574659064695347f02c76758Execute Auction146035662022-01-23 1:58:231 hr 43 mins ago0xcc376952b162800ef3570dbb8f2dd8aba138b296OUT 0xe97fdca0a3fc76b3046ae496c1502c9d8dfef6fc0 BNB0.000889945
0x662e6d8b910f2ee8622d1423458249b60fc534aeeaabf05b6b41a68075baf2abExecute Auction146035592022-01-23 1:58:021 hr 43 mins ago0xcc376952b162800ef3570dbb8f2dd8aba138b296OUT 0xe97fdca0a3fc76b3046ae496c1502c9d8dfef6fc0 BNB0.000889945
0x2f5f53e2ea4d7a0c1e4dac942b4858a901e4212d3334c4142d31ea127989f522Execute Auction146035512022-01-23 1:57:381 hr 44 mins ago0xcc376952b162800ef3570dbb8f2dd8aba138b296OUT 0xe97fdca0a3fc76b3046ae496c1502c9d8dfef6fc0 BNB0.000889945
0x016e904f97f11ae24594effa2fcec68571e70173cd30872d8a2485cf8df9cdd2Execute Auction146035422022-01-23 1:57:111 hr 44 mins ago0xcc376952b162800ef3570dbb8f2dd8aba138b296OUT 0xe97fdca0a3fc76b3046ae496c1502c9d8dfef6fc0 BNB0.000889945
0xe0e6425c664635bebcabbc5fd743ab9fe43e696f754f60c18789963fbdac01b0Execute Auction146035302022-01-23 1:56:351 hr 45 mins ago0xcc376952b162800ef3570dbb8f2dd8aba138b296OUT 0xe97fdca0a3fc76b3046ae496c1502c9d8dfef6fc0 BNB0.000889945
0xba5ad7a0a2a03017fe79437a8ed5b205d02d23a03a1308126d0029527f32eea7Execute Auction146035202022-01-23 1:56:051 hr 45 mins ago0xcc376952b162800ef3570dbb8f2dd8aba138b296OUT 0xe97fdca0a3fc76b3046ae496c1502c9d8dfef6fc0 BNB0.000889945
0x67f4c82c136b21f61499ae22fbc7a5f5918ff0673e5e104f29f24fb0d0e62de8Execute Auction146035112022-01-23 1:55:381 hr 46 mins ago0xcc376952b162800ef3570dbb8f2dd8aba138b296OUT 0xe97fdca0a3fc76b3046ae496c1502c9d8dfef6fc0 BNB0.000889945
0xd09a350d5b77800e09842ce9140d9b1087b736cfde660847cf7275baf388b37aExecute Auction146034132022-01-23 1:50:441 hr 51 mins ago0xcc376952b162800ef3570dbb8f2dd8aba138b296OUT 0xe97fdca0a3fc76b3046ae496c1502c9d8dfef6fc0 BNB0.000889885
0xf07fcdc3bd42755db1c18c28972bcecf0d1854a01b02484e5277a9cb1e4014fdExecute Auction146034062022-01-23 1:50:231 hr 51 mins ago0xcc376952b162800ef3570dbb8f2dd8aba138b296OUT 0xe97fdca0a3fc76b3046ae496c1502c9d8dfef6fc0 BNB0.000889945
0x9027076e6c4cf87cc71aa131d5d65ec99cc66d20389dcdd23985752a89ce41ffExecute Auction146033942022-01-23 1:49:471 hr 52 mins ago0xcc376952b162800ef3570dbb8f2dd8aba138b296OUT 0xe97fdca0a3fc76b3046ae496c1502c9d8dfef6fc0 BNB0.000889945
0x7edc9e8d04f4f0bd0f8fe2d2de5d23910533724d31bd76538395a298b670fe89Execute Auction146033882022-01-23 1:49:291 hr 52 mins ago0xcc376952b162800ef3570dbb8f2dd8aba138b296OUT 0xe97fdca0a3fc76b3046ae496c1502c9d8dfef6fc0 BNB0.000889945
0xe370eae6cce25768f0332e74c2c7db20b77f3221f6f8fecb38ecaaa1b419d5abExecute Auction146033792022-01-23 1:49:021 hr 52 mins ago0xcc376952b162800ef3570dbb8f2dd8aba138b296OUT 0xe97fdca0a3fc76b3046ae496c1502c9d8dfef6fc0 BNB0.000889945
0xb85d59b6b3e4437ce0160a101f44f9fc4f32b457bacb21badde5c6ae677daadbExecute Auction146033712022-01-23 1:48:381 hr 53 mins ago0xcc376952b162800ef3570dbb8f2dd8aba138b296OUT 0xe97fdca0a3fc76b3046ae496c1502c9d8dfef6fc0 BNB0.000889885
0xd8f483f0f6588addebd3601a48ddd6c256ed8d5fefdcefabd013985eb90f71a6Execute Auction146033662022-01-23 1:48:231 hr 53 mins ago0xcc376952b162800ef3570dbb8f2dd8aba138b296OUT 0xe97fdca0a3fc76b3046ae496c1502c9d8dfef6fc0 BNB0.000889945
0x755a99cbd0efbecaed2c8dca2d8230cd7c3facd7438acf1d5b42d26499fbabb0Execute Auction146033592022-01-23 1:48:021 hr 53 mins ago0xcc376952b162800ef3570dbb8f2dd8aba138b296OUT 0xe97fdca0a3fc76b3046ae496c1502c9d8dfef6fc0 BNB0.000889945
0x9f8a99775718b31ea318a547b09098ace9f604e64fc61f15e5ff52c447f43c19Execute Auction146033522022-01-23 1:47:411 hr 54 mins ago0xcc376952b162800ef3570dbb8f2dd8aba138b296OUT 0xe97fdca0a3fc76b3046ae496c1502c9d8dfef6fc0 BNB0.000889945
0xd088b139caa8ce0af3ae38e3b78eec0f96892b54f9a80f4561262654264d9e29Transfer146033392022-01-23 1:47:021 hr 54 mins ago0xcc376952b162800ef3570dbb8f2dd8aba138b296OUT Radio Caca: RACA Token0 BNB0.00019173
0x068ba56a310377b8641f64bef5be7a3170ab6b3f4b2918be6af72191e11fde89Execute Auction145847052022-01-22 10:14:1117 hrs 27 mins ago0xcc376952b162800ef3570dbb8f2dd8aba138b296OUT 0xe97fdca0a3fc76b3046ae496c1502c9d8dfef6fc0 BNB0.000222971
[ Download CSV Export 
Latest 2 internal transactions
Parent Txn Hash Block From To Value
0x98bf159987f861f8c3de6f39b571cbb89951fd509e58ea7e767f208bee4bb2f0143733192022-01-15 1:02:588 days 2 hrs ago PancakeSwap: Router v20xcc376952b162800ef3570dbb8f2dd8aba138b2965 BNB
0x5c96464ebf4768e6e83acd825412528f1fff647426f05c61460b96c82ec6fdd4138540382021-12-27 23:32:3726 days 4 hrs ago PancakeSwap: Router v20xcc376952b162800ef3570dbb8f2dd8aba138b2967.875877068936586572 BNB
[ Download CSV Export 
Loading

Contract Name:
0 BNB

Compiler Version
0

Optimization Enabled:
0 BNB

Other Settings:
-NA-
Block Transaction Gas Used Reward
Age Block Fee Address BC Fee Address Voting Power Jailed Incoming
Block Uncle Number Difficulty Gas Used Reward
Loading
Loading
Make sure to use the "Vote Down" button for any spammy posts, and the "Vote Up" for interesting conversations.